Regional Weather Roundup
Issued by NWS

Home | Current Version | Previous Version | Graphics & Text | Print | Product List | Glossary On
Versions: 1 2 3 4 5 6 7 8 9 10 11 12 13 14 15 16 17 18 19 20 21 22 23 24 25 26 27 28 29 30 31 32 33 34 35 36 37 38 39 40 41 42 43 44 45 46 47 48 49 50
118
ASUS45 KSLC 200810
RWRUT

UTAH REGIONAL WEATHER ROUNDUP
NATIONAL WEATHER SERVICE SALT LAKE CITY UT
200 AM MDT FRI APR 20 2018

UTZ001>011-023>025-200900-

NORTHERN UTAH

CITY           SKY/WX    TMP DP  RH WIND       PRES   REMARKS
BRIGHAM CITY   PTCLDY    55  18  23 N17       29.76S
HILL AFB       PTCLDY    51  19  28 SE5       29.73S
LOGAN          MOCLDY    49  27  42 SW8       29.79F
OGDEN          PTCLDY    56  22  26 NE12G21   29.72R
SALT LAKE CITY MOCLDY    48  33  56 NW9       29.69F
TOOELE VALLEY  PTCLDY    37  34  87 SE3       29.73S
WENDOVER       MOCLDY    55  24  30 NW26G32   29.79S
HEBER CITY     CLOUDY    46  28  49 CALM      29.72F
WEST JORDAN    PTCLDY    49  31  51 W12       29.72S

$$

UTZ011>015-024>027-200900-

CENTRAL/NORTHEAST UTAH

CITY           SKY/WX    TMP DP  RH WIND       PRES   REMARKS
PROVO AIRPORT  MOCLDY    47  33  58 SE7       29.73R
MOAB/CANYONLAN MOCLDY    53  10  18 W3        29.70R
DELTA          CLOUDY    39  36  87 S17       29.77F WCI  30
PRICE          MOCLDY    54  14  20 SE12G25   29.68S
RICHFIELD      CLOUDY    41  34  75 NW10      29.78S
ROOSEVELT      CLOUDY    50  34  53 NE13      29.80F
VERNAL         LGT RAIN  47  40  76 N15       29.80R

$$

UTZ013>016-019>022-027-200900-

SOUTHERN UTAH

CITY           SKY/WX    TMP DP  RH WIND       PRES   REMARKS
BRYCE CANYON   CLOUDY    29  25  85 W6        29.82R WCI  23
CEDAR CITY     PTCLDY    32  26  78 SW3       29.83S
MILFORD        LGT RAIN  39  39 100 SW10      29.81F WCI  32
ST GEORGE      CLOUDY    49  35  58 S3        29.86R
HANKSVILLE     CLEAR     50  12  22 S13       29.73S
KANAB          PTCLDY    39  30  70 CALM      29.90S
BLANDING         N/A     46   9  22 S10       29.89R

$$

REGIONAL REPORTS     COLORADO/ARIZONA

CITY           SKY/WX    TMP DP  RH WIND       PRES   REMARKS
CRAIG, CO      CLOUDY    48  34  58 S5        29.83F
GRAND JUNCTION CLOUDY    59  27  29 S18G32    29.74R
RIFLE, CO      CLOUDY    57  32  38 E3        29.77S
MONTROSE, CO   CLOUDY    46  33  60 SE10      29.86R
CORTEZ, CO     CLOUDY    48   9  20 SW12      29.86R
COLORADO CITY    N/A     36  34  93 SW3       29.89S
PAGE, AZ       CLOUDY    50  24  36 W9        29.82R
GRAND CANYON   NOT AVBL
KINGMAN, AZ    MOCLDY    50  27  40 W13G21    29.91R
FLAGSTAFF, AZ  CLOUDY    34  18  52 W9        29.92R WCI  27

$$

REGIONAL REPORTS    NEVADA/IDAHO/WYOMING

CITY           SKY/WX    TMP DP  RH WIND       PRES   REMARKS
LAS VEGAS, NV  PTCLDY    56  36  47 W7        29.89R
ELY, NY        CLOUDY    41  23  48 N14       29.89R
ELKO, NV       CLEAR     45  27  49 CALM      29.98R
POCATELLO, ID  PTCLDY    45  27  49 NE7       29.92R
BURLEY, ID     CLOUDY    43  32  65 W8        29.94R
FORT BRIDGER,  PTSUNNY   43  27  54 CALM      29.90S
EVANSTON, WY   CLOUDY    44  28  53 NE7       29.85F
ROCK SPRINGS,  CLOUDY    44  21  40 NE15      29.88R
KEMMERER, WY   CLOUDY    43  19  39 N8        29.89S

$$




USA.gov is the U.S. government's official web portal to all federal, state and local government web resources and services.